GW0207 Weather Reports


time (UTC)temp
C
wind
direction
speed
KPH
gust
KPH
rain 1hr
cm
rain 24hr
cm
rain mn
cm
humidity
%
barometer
mb
20260502183031 12 250 0.0 3.2 0.00 0.43 0.43 89 1011.7
20260502182531 12 216 0.0 1.6 0.00 0.43 0.43 91 1011.9
20260502182031 12 49 0.0 3.2 0.00 0.43 0.43 90 1011.9
20260502181532 12 227 0.0 3.2 0.00 0.43 0.43 90 1011.9
20260502181032 12 266 0.0 1.6 0.00 0.43 0.43 92 1012.1
20260502180531 12 251 0.0 1.6 0.00 0.43 0.43 92 1012.0
20260502164012 11 269 0.0 0.0 0.05 0.43 0.43 93 1012.8
20260502163506 11 44 0.0 3.2 0.05 0.43 0.43 93 1012.9
20260502163008 11 253 0.0 3.2 0.03 0.41 0.41 92 1013.1
20260502162505 11 351 0.0 1.6 0.03 0.41 0.41 93 1013.2
20260502162005 11 90 0.0 1.6 0.03 0.41 0.41 93 1013.4
20260502161730 11 256 0.0 1.6 0.03 0.41 0.41 93 1013.4
20260502161005 11 332 0.0 0.0 0.03 0.41 0.41 93 1013.3
20260502160506 11 240 0.0 6.4 0.05 0.41 0.41 93 1013.3
20260502152001 11 81 0.0 1.6 0.08 0.38 0.38 93 1013.0
20260502151502 11 69 0.0 3.2 0.10 0.38 0.38 93 1012.9
20260502151001 11 270 0.0 3.2 0.10 0.38 0.38 93 1013.0
20260502150500 11 265 0.0 1.6 0.10 0.36 0.36 93 1013.1
20260502130153 11 306 0.0 1.6 0.05 0.10 0.10 93 1012.1
20260502123429 11 353 0.0 1.6 0.05 0.08 0.08 92 1011.9
20260502123145 11 71 0.0 0.0 0.05 0.08 0.08 92 1011.7
20260502122428 11 72 0.0 0.0 0.05 0.08 0.08 92 1011.6
20260502121928 11 131 0.0 1.6 0.05 0.08 0.08 92 1011.6
20260502121429 11 251 0.0 1.6 0.03 0.05 0.05 92 1011.6
20260502120928 11 62 0.0 0.0 0.03 0.05 0.05 92 1011.8
20260502120429 11 67 0.0 0.0 0.03 0.05 0.05 91 1011.6
20260502115928 11 299 0.0 0.0 0.05 0.05 0.05 91 1011.7
20260502115429 11 3 0.0 0.0 0.05 0.05 0.05 91 1011.8
20260502115152 11 314 0.0 0.0 0.05 0.05 0.05 91 1011.8
20260502114431 11 70 0.0 1.6 0.05 0.05 0.05 91 1011.8
20260502113928 11 72 0.0 1.6 0.05 0.05 0.05 90 1011.8
20260502113429 11 236 0.0 1.6 0.03 0.03 0.03 90 1011.8
20260502112929 11 309 0.0 1.6 0.03 0.03 0.03 90 1011.8
20260502112648 11 343 0.0 1.6 0.03 0.03 0.03 90 1012.0
20260502111930 11 294 0.0 1.6 0.03 0.03 0.03 90 1012.0
20260502111428 11 8 0.0 0.0 0.03 0.03 0.03 90 1012.0
20260502110929 11 79 0.0 0.0 0.03 0.03 0.03 90 1011.9
20260502110428 11 82 0.0 0.0 0.03 0.03 0.03 90 1012.1
20260502105928 11 82 0.0 0.0 0.00 0.00 0.00 89 1012.1
20260502105429 11 6 0.0 0.0 0.00 0.00 0.00 89 1012.1
20260502104929 11 8 0.0 0.0 0.00 0.00 0.00 88 1012.1
20260502104430 11 11 0.0 0.0 0.00 0.00 0.00 88 1012.0
20260502103929 11 270 0.0 1.6 0.00 0.00 0.00 88 1012.0
20260502103431 11 27 0.0 1.6 0.00 0.00 0.00 88 1012.0
20260502102928 11 100 0.0 1.6 0.00 0.00 0.00 88 1012.0
20260502102428 11 64 0.0 1.6 0.00 0.00 0.00 89 1012.0
20260502101929 11 64 0.0 1.6 0.00 0.00 0.00 90 1011.8
20260502101430 11 145 0.0 0.0 0.00 0.00 0.00 90 1012.0
20260502100929 11 145 0.0 0.0 0.00 0.00 0.00 91 1012.0
20260502100431 11 145 0.0 0.0 0.00 0.00 0.00 91 1012.0
20260502091428 11 165 0.0 0.0 0.00 0.00 0.00 93 1011.8
20260502090929 11 165 0.0 0.0 0.00 0.00 0.00 93 1011.7
20260502090428 11 165 0.0 0.0 0.00 0.00 0.00 94 1011.7
20260502071404 10 225 0.0 0.0 0.00 0.00 0.00 93 1011.2
20260502070901 10 225 0.0 0.0 0.00 0.00 0.00 93 1011.3
20260502070401 10 225 0.0 0.0 0.00 0.00 0.00 93 1011.3
20260502065901 10 225 0.0 0.0 0.00 0.00 0.00 93 1011.3
20260502065400 10 225 0.0 0.0 0.00 0.00 0.00 93 1011.2
20260502064901 10 225 0.0 0.0 0.00 0.00 0.00 93 1011.2
20260502064404 10 225 0.0 0.0 0.00 0.00 0.00 93 1011.2
20260502063903 10 225 0.0 0.0 0.00 0.00 0.00 93 1011.3
20260502063627 11 225 0.0 0.0 0.00 0.00 0.00 93 1011.3
20260502062905 11 225 0.0 0.0 0.00 0.00 0.00 93 1011.5
20260502062404 11 226 0.0 0.0 0.00 0.00 0.00 93 1011.5
20260502061903 11 226 0.0 0.0 0.00 0.00 0.00 92 1011.4
20260502061403 11 226 0.0 0.0 0.00 0.00 0.00 92 1011.4
20260502060903 11 226 0.0 0.0 0.00 0.00 0.00 92 1011.4
20260502060403 11 226 0.0 0.0 0.00 0.00 0.00 92 1011.5
20260502055905 11 226 0.0 0.0 0.00 0.00 0.00 92 1011.5
20260502055404 11 225 0.0 0.0 0.00 0.00 0.00 92 1011.5
20260502054902 11 225 0.0 0.0 0.00 0.00 0.00 92 1011.5
20260502054403 11 225 0.0 0.0 0.00 0.00 0.00 92 1011.6
20260502054123 11 225 0.0 0.0 0.00 0.00 0.00 92 1011.8
20260502053404 11 226 0.0 0.0 0.00 0.00 0.00 92 1011.7
20260502052903 11 226 0.0 0.0 0.00 0.00 0.00 92 1011.8
20260502052404 11 226 0.0 0.0 0.00 0.00 0.00 92 1011.8
20260502051903 11 226 0.0 0.0 0.00 0.00 0.00 91 1011.9
20260502051403 11 226 0.0 0.0 0.00 0.00 0.00 91 1011.9
20260502050903 11 225 0.0 0.0 0.00 0.00 0.00 91 1011.9
20260502050403 11 225 0.0 0.0 0.00 0.00 0.00 91 1012.0
20260502045903 11 225 0.0 0.0 0.00 0.00 0.00 91 1012.0
20260502045403 11 226 0.0 0.0 0.00 0.00 0.00 91 1011.9
20260502044905 11 226 0.0 0.0 0.00 0.00 0.00 91 1012.0
20260502044403 11 225 0.0 0.0 0.00 0.00 0.00 91 1012.0
20260502043903 11 226 0.0 0.0 0.00 0.00 0.00 91 1012.0
20260502043402 11 225 0.0 0.0 0.00 0.00 0.00 91 1012.0
20260502042904 11 226 0.0 0.0 0.00 0.00 0.00 91 1012.0
20260502042405 11 225 0.0 0.0 0.00 0.00 0.00 91 1012.1
20260502041902 11 225 0.0 0.0 0.00 0.00 0.00 91 1012.2
20260502041403 11 225 0.0 0.0 0.00 0.00 0.00 91 1012.3
20260502041354 11 225 0.0 0.0 0.00 0.00 0.00 91 1012.3
20260502040403 11 225 0.0 0.0 0.00 0.00 0.00 91 1012.2
20260502035903 11 225 0.0 0.0 0.00 0.00 0.00 91 1012.2
20260502035404 11 225 0.0 0.0 0.00 0.00 0.00 91 1012.3
20260502034900 11 225 0.0 0.0 0.00 0.00 0.00 91 1012.4
20260502034401 11 225 0.0 0.0 0.00 0.00 0.00 91 1012.3
20260502033901 11 226 0.0 0.0 0.00 0.00 0.00 90 1012.3
20260502033400 11 226 0.0 0.0 0.00 0.00 0.00 90 1012.3
20260502032900 11 226 0.0 0.0 0.00 0.00 0.00 90 1012.2
20260502032401 11 226 0.0 0.0 0.00 0.00 0.00 90 1012.3
20260502031901 11 226 0.0 0.0 0.00 0.00 0.00 90 1012.3
20260502031400 11 226 0.0 0.0 0.00 0.00 0.00 89 1012.3
20260502030901 11 225 0.0 0.0 0.00 0.00 0.00 89 1012.4
20260502030402 11 225 0.0 0.0 0.00 0.00 0.00 89 1012.5
20260502025901 11 225 0.0 0.0 0.00 0.00 0.00 89 1012.5
20260502025401 11 225 0.0 0.0 0.00 0.00 0.00 89 1012.5
20260502024901 11 225 0.0 0.0 0.00 0.00 0.00 89 1012.5
20260502024626 11 225 0.0 0.0 0.00 0.00 0.00 89 1012.6
20260502023901 11 225 0.0 0.0 0.00 0.00 0.00 89 1012.5
20260502023400 11 228 0.0 0.0 0.00 0.00 0.00 89 1012.4
20260502022901 11 228 0.0 0.0 0.00 0.00 0.00 89 1012.5
20260502022400 11 229 0.0 0.0 0.00 0.00 0.00 89 1012.7
20260502021901 11 228 0.0 0.0 0.00 0.00 0.00 89 1012.7
20260502021401 11 229 0.0 0.0 0.00 0.00 0.00 89 1012.6
20260502020901 11 229 0.0 0.0 0.00 0.00 0.00 89 1012.6
20260502020400 11 84 0.0 0.0 0.00 0.00 0.00 88 1012.7
20260502015900 11 85 0.0 0.0 0.00 0.00 0.00 88 1012.6
20260502015401 11 84 0.0 0.0 0.00 0.00 0.00 88 1012.6
20260502014901 11 84 0.0 0.0 0.00 0.00 0.00 88 1012.5
20260502014401 11 84 0.0 0.0 0.00 0.00 0.00 89 1012.6
20260502014122 11 84 0.0 0.0 0.00 0.00 0.00 89 1012.6
20260502013354 11 84 0.0 0.0 0.00 0.00 0.00 89 1012.6
20260502012849 11 84 0.0 0.0 0.00 0.00 0.00 89 1012.6
20260502012343 11 84 0.0 0.0 0.00 0.00 0.00 88 1012.7
20260502011838 11 84 0.0 0.0 0.00 0.00 0.00 88 1012.7
20260502011339 11 84 0.0 0.0 0.00 0.00 0.00 88 1012.5
20260502010840 11 84 0.0 0.0 0.00 0.00 0.00 87 1012.2
20260502010339 11 84 0.0 0.0 0.00 0.00 0.00 87 1012.3
20260502005839 11 84 0.0 0.0 0.00 0.00 0.00 86 1012.2
20260502005337 11 84 0.0 0.0 0.00 0.00 0.00 86 1012.3
20260502004838 11 84 0.0 0.0 0.00 0.00 0.00 85 1012.2
20260502004337 11 84 0.0 0.0 0.00 0.00 0.00 85 1012.1
20260502003837 11 84 0.0 0.0 0.00 0.00 0.00 85 1012.1
20260502003337 11 84 0.0 0.0 0.00 0.00 0.00 84 1012.0
20260502002835 11 84 0.0 0.0 0.00 0.00 0.00 83 1011.9
20260502002333 11 84 0.0 0.0 0.00 0.00 0.00 83 1011.8
20260502001835 12 84 0.0 0.0 0.00 0.00 0.00 82 1011.8
20260502001332 12 84 0.0 0.0 0.00 0.00 0.00 82 1011.8
20260502000832 12 84 0.0 0.0 0.00 0.00 0.00 81 1011.8
20260502000332 12 216 0.0 0.0 0.00 0.00 0.00 81 1011.8
20260501235832 12 216 0.0 0.0 0.00 0.00 0.00 80 1012.0
20260501235331 12 216 0.0 0.0 0.00 0.00 0.00 80 1012.0
20260501234830 12 216 0.0 0.0 0.00 0.00 0.00 79 1011.9
20260501234328 12 217 0.0 0.0 0.00 0.00 0.00 78 1011.8
20260501233829 12 217 0.0 0.0 0.00 0.00 0.00 78 1011.8
20260501233329 12 220 0.0 0.0 0.00 0.00 0.00 78 1011.8
20260501232828 12 219 0.0 0.0 0.00 0.00 0.00 77 1011.7
20260501232330 12 219 0.0 0.0 0.00 0.00 0.00 77 1011.7
20260501231829 12 220 0.0 0.0 0.00 0.00 0.00 76 1011.7
20260501231555 13 187 0.0 0.0 0.00 0.00 0.00 75 1011.8
20260501230828 13 102 0.0 0.0 0.00 0.00 0.00 75 1011.8
20260501230328 13 225 0.0 1.6 0.00 0.00 0.00 75 1011.9
20260501225829 13 226 0.0 1.6 0.00 0.00 0.00 74 1011.7
20260501225329 13 230 0.0 0.0 0.00 0.00 0.00 74 1011.8
20260501224829 13 209 0.0 1.6 0.00 0.00 0.00 75 1011.9
20260501224328 13 224 0.0 1.6 0.00 0.00 0.00 75 1012.0
20260501223830 13 185 0.0 1.6 0.00 0.00 0.00 75 1012.1
20260501223329 13 86 0.0 1.6 0.00 0.00 0.00 76 1012.2
20260501223050 13 189 0.0 1.6 0.00 0.00 0.00 75 1012.3
20260501222328 13 46 0.0 1.6 0.00 0.00 0.00 75 1012.5
20260501222046 13 195 0.0 3.2 0.00 0.00 0.00 76 1012.4
20260501221318 13 111 0.0 3.2 0.00 0.00 0.00 77 1012.4
20260501220819 13 204 0.0 1.6 0.00 0.00 0.00 76 1012.5
20260501220317 13 88 0.0 0.0 0.00 0.00 0.00 77 1012.6
20260501220043 13 211 0.0 1.6 0.00 0.00 0.00 77 1012.6
20260501215313 13 211 0.0 1.6 0.00 0.00 0.00 76 1012.6
20260501214811 13 223 0.0 1.6 0.00 0.00 0.00 76 1012.6
20260501214755 13 95 0.0 1.6 0.00 0.00 0.00 75 1012.6
20260501214030 13 233 0.0 1.6 0.00 0.00 0.00 76 1012.6
20260501213308 13 221 0.0 3.2 0.00 0.00 0.00 76 1012.6
20260501212807 13 157 0.0 3.2 0.00 0.00 0.00 76 1012.5
20260501212307 13 62 0.0 1.6 0.00 0.00 0.00 77 1012.5
20260501211806 13 192 0.0 1.6 0.00 0.00 0.00 77 1012.5
20260501211307 13 116 0.0 4.8 0.00 0.00 0.00 77 1012.4
20260501211027 13 84 0.0 4.8 0.00 0.00 0.00 77 1012.5
20260501210305 13 196 0.0 1.6 0.00 0.00 0.00 78 1012.4
20260501205802 13 199 0.0 1.6 0.00 0.00 0.00 78 1012.6
20260501205306 13 200 0.0 4.8 0.00 0.00 0.00 78 1012.6
20260501205037 13 226 0.0 4.8 0.00 0.00 0.00 77 1012.6
20260501204303 13 350 0.0 3.2 0.00 0.00 0.00 76 1012.6
20260501203803 14 233 0.0 6.4 0.00 0.00 0.00 74 1012.7
20260501203303 15 202 0.0 6.4 0.00 0.00 0.00 69 1012.6
20260501202802 15 53 0.0 6.4 0.00 0.00 0.00 64 1012.5
20260501202306 16 135 0.0 6.4 0.00 0.00 0.00 61 1012.3
20260501201803 16 95 0.0 4.8 0.00 0.00 0.00 59 1012.3
20260501201303 17 62 0.0 3.2 0.00 0.00 0.00 58 1012.4
20260501201024 17 216 0.0 3.2 0.00 0.00 0.00 56 1012.6
20260501200524 18 98 0.0 1.6 0.00 0.00 0.00 55 1012.7
20260501195803 18 76 0.0 3.2 0.00 0.00 0.00 57 1012.7
20260501195305 17 230 0.0 3.2 0.00 0.00 0.00 58 1012.8
20260501194804 17 79 0.0 6.4 0.00 0.00 0.00 56 1012.7
20260501194303 18 233 0.0 6.4 0.00 0.00 0.00 56 1012.7
20260501194026 18 203 0.0 4.8 0.00 0.00 0.00 56 1012.7
20260501193303 18 204 0.0 6.4 0.00 0.00 0.00 56 1012.7
20260501192803 18 56 0.0 6.4 0.00 0.00 0.00 56 1012.8
20260501192305 18 197 0.0 6.4 0.00 0.00 0.00 56 1012.9
20260501192024 18 233 0.0 8.0 0.00 0.00 0.00 55 1013.0
20260501191301 18 108 0.0 8.0 0.00 0.00 0.00 55 1013.1
20260501191239 18 49 0.0 3.2 0.00 0.00 0.00 55 1013.1
20260501190254 18 20 0.0 3.2 0.00 0.00 0.00 55 1013.2
20260501185746 18 235 0.0 4.8 0.00 0.00 0.00 54 1013.2
20260501185242 18 41 0.0 4.8 0.00 0.00 0.00 58 1013.4
20260501185000 17 211 0.0 3.2 0.00 0.00 0.00 56 1013.6
20260501184237 17 42 0.0 3.2 0.00 0.00 0.00 53 1013.8
20260501183735 18 46 0.0 3.2 0.00 0.00 0.00 53 1013.8